FW5763 Weather Reports


Display with metric or nautical units.
time (UTC)temp
F
wind
direction
speed
MPH
gust
MPH
rain 1hr
in
rain 24hr
in
rain mn
in
humidity
%
barometer
mb
20260508063116 53 265 1.0 2.0 0.00 0.00 0.00 90 1018.6
20260508062116 53 243 1.0 2.0 0.00 0.00 0.00 90 1018.7
20260508061136 53 251 3.0 4.0 0.00 0.00 0.00 90 1018.7
20260508060136 53 270 2.0 4.0 0.00 0.00 0.00 90 1018.6
20260508055136 53 275 2.0 4.0 0.00 0.00 0.00 89 1018.7
20260508054116 53 268 1.0 2.0 0.00 0.00 0.00 89 1018.6
20260508053116 54 269 1.0 2.0 0.00 0.00 0.00 88 1018.6
20260508052116 54 269 1.0 2.0 0.00 0.00 0.00 88 1018.6
20260508051116 54 242 0.0 1.0 0.00 0.00 0.00 88 1018.4
20260508050116 54 247 1.0 2.0 0.00 0.00 0.00 87 1018.5
20260508045116 54 262 1.0 2.0 0.00 0.00 0.00 87 1018.5
20260508044116 55 228 1.0 2.0 0.00 0.00 0.00 87 1018.4
20260508043116 55 252 3.0 3.0 0.00 0.00 0.00 86 1018.4
20260508042116 56 173 0.0 1.0 0.00 0.00 0.00 85 1018.3
20260508041116 56 166 1.0 2.0 0.00 0.00 0.00 84 1018.0
20260508040116 56 198 1.0 2.0 0.00 0.00 0.00 84 1018.0
20260508035116 57 192 1.0 2.0 0.00 0.00 0.00 83 1017.9
20260508034136 57 116 1.0 2.0 0.00 0.00 0.00 82 1017.9
20260508033116 58 162 3.0 5.0 0.00 0.00 0.00 80 1017.8
20260508032136 59 156 2.0 4.0 0.00 0.00 0.00 79 1017.5
20260508031116 60 196 3.0 6.0 0.00 0.00 0.00 77 1017.4
20260508030115 62 154 3.0 6.0 0.00 0.00 0.00 74 1017.3
20260508025115 63 219 1.0 4.0 0.00 0.00 0.00 73 1017.1
20260508024116 64 162 3.0 6.0 0.00 0.00 0.00 71 1017.1
20260508023115 64 163 2.0 3.0 0.00 0.00 0.00 71 1017.0
20260508022135 65 129 3.0 7.0 0.00 0.00 0.00 70 1017.0
20260508021136 66 110 3.0 7.0 0.00 0.00 0.00 68 1017.0
20260508020116 66 135 3.0 6.0 0.00 0.00 0.00 68 1017.0
20260508015216 67 153 4.0 8.0 0.00 0.00 0.00 68 1017.0
20260508014115 67 160 3.0 5.0 0.00 0.00 0.00 68 1016.9
20260508013116 67 148 3.0 6.0 0.00 0.00 0.00 67 1016.8
20260508012116 67 144 4.0 8.0 0.00 0.00 0.00 66 1016.7
20260508011115 68 139 3.0 8.0 0.00 0.00 0.00 64 1016.7
20260508010115 68 152 5.0 8.0 0.00 0.00 0.00 63 1016.7
20260508005116 69 170 1.0 6.0 0.00 0.00 0.00 62 1016.8
20260508004116 69 132 2.0 3.0 0.00 0.00 0.00 62 1016.8
20260508003155 69 166 4.0 6.0 0.00 0.00 0.00 60 1016.8
20260508002135 69 109 2.0 5.0 0.00 0.00 0.00 61 1017.0
20260508001116 69 143 3.0 6.0 0.00 0.00 0.00 61 1016.9
20260508000116 69 113 3.0 6.0 0.00 0.00 0.00 62 1016.9
20260507235115 70 144 3.0 8.0 0.00 0.00 0.00 61 1017.0
20260507234115 71 143 3.0 9.0 0.00 0.00 0.00 59 1016.8
20260507233116 72 135 3.0 7.0 0.00 0.00 0.00 59 1016.8
20260507232115 72 105 4.0 6.0 0.00 0.00 0.00 59 1017.0
20260507231115 72 110 6.0 8.0 0.00 0.00 0.00 61 1017.1
20260507230115 71 101 5.0 7.0 0.00 0.00 0.00 60 1017.2
20260507225115 72 155 4.0 6.0 0.00 0.00 0.00 60 1017.3
20260507224116 72 115 6.0 9.0 0.00 0.00 0.00 60 1017.3
20260507223115 72 113 3.0 6.0 0.00 0.00 0.00 61 1017.4
20260507222116 71 131 4.0 7.0 0.00 0.00 0.00 62 1017.5
20260507221115 71 143 3.0 7.0 0.00 0.00 0.00 62 1017.5
20260507220115 71 81 5.0 8.0 0.00 0.00 0.00 62 1017.5
20260507215115 71 78 5.0 8.0 0.00 0.00 0.00 63 1017.6
20260507214116 70 159 5.0 8.0 0.00 0.00 0.00 64 1017.5
20260507213115 70 129 5.0 8.0 0.00 0.00 0.00 64 1017.7
20260507212115 70 149 4.0 7.0 0.00 0.00 0.00 64 1017.9
20260507211116 71 144 3.0 6.0 0.00 0.00 0.00 63 1017.9
20260507210115 70 214 5.0 7.0 0.00 0.00 0.00 64 1018.0
20260507205115 70 211 4.0 6.0 0.00 0.00 0.00 66 1018.0
20260507204136 69 192 3.0 6.0 0.00 0.00 0.00 66 1018.0
20260507203115 69 187 3.0 5.0 0.00 0.00 0.00 65 1018.1
20260507202115 69 154 2.0 5.0 0.00 0.00 0.00 67 1018.2
20260507201115 68 104 3.0 7.0 0.00 0.00 0.00 69 1018.1
20260507200115 66 149 2.0 4.0 0.00 0.00 0.00 70 1018.4
20260507195115 66 212 1.0 2.0 0.00 0.00 0.00 72 1018.5
20260507194115 64 209 3.0 5.0 0.00 0.00 0.00 74 1018.8
20260507193115 64 218 2.0 5.0 0.00 0.00 0.00 74 1018.9
20260507192115 64 220 4.0 7.0 0.00 0.00 0.00 76 1019.0
20260507191136 63 140 3.0 5.0 0.00 0.00 0.00 77 1019.1
20260507190137 63 152 3.0 7.0 0.00 0.00 0.00 79 1019.1
20260507185137 62 198 5.0 8.0 0.00 0.00 0.00 80 1019.2
20260507184117 62 207 3.0 6.0 0.00 0.00 0.00 80 1019.4
20260507183117 61 207 3.0 6.0 0.00 0.00 0.00 81 1019.2
20260507182118 61 123 4.0 6.0 0.00 0.00 0.00 83 1019.4
20260507181117 59 237 4.0 7.0 0.00 0.00 0.00 84 1019.4
20260507180117 60 239 6.0 9.0 0.00 0.00 0.00 84 1019.3
20260507175118 60 87 1.0 10.0 0.00 0.00 0.00 85 1019.4
20260507174117 60 198 4.0 6.0 0.00 0.00 0.00 84 1019.3
20260507173138 59 174 3.0 4.0 0.00 0.00 0.00 88 1019.3
20260507172118 59 205 4.0 6.0 0.00 0.00 0.00 90 1019.2
20260507171118 58 175 2.0 5.0 0.00 0.00 0.00 92 1019.3
20260507170157 57 212 3.0 5.0 0.00 0.00 0.00 93 1019.3
20260507165118 56 277 1.0 2.0 0.00 0.00 0.00 94 1019.3
20260507164118 55 47 0.0 2.0 0.00 0.00 0.00 93 1019.5
20260507163117 54 266 2.0 3.0 0.00 0.00 0.00 93 1019.6
20260507162117 54 250 2.0 3.0 0.00 0.00 0.00 93 1019.6
20260507161115 54 259 2.0 3.0 0.00 0.00 0.00 93 1019.5
20260507160115 54 344 1.0 1.0 0.00 0.00 0.00 93 1019.6
20260507155135 54 39 0.0 1.0 0.00 0.00 0.00 93 1019.6
20260507154135 54 56 1.0 2.0 0.00 0.00 0.00 93 1019.6
20260507153135 53 342 0.0 1.0 0.00 0.00 0.00 93 1019.5
20260507152115 53 42 0.0 1.0 0.00 0.00 0.00 93 1019.6
20260507151115 53 15 2.0 2.0 0.00 0.00 0.00 93 1019.7
20260507150115 53 41 2.0 3.0 0.00 0.00 0.00 93 1019.6
20260507145115 53 39 2.0 3.0 0.00 0.00 0.00 93 1019.6
20260507144135 53 0.0 0.0 0.00 0.00 0.00 93 1019.6
20260507143115 53 0.0 0.0 0.00 0.00 0.00 93 1019.5
20260507142115 53 53 0.0 1.0 0.00 0.00 0.00 93 1019.5
20260507141115 53 31 1.0 2.0 0.00 0.00 0.00 93 1019.6
20260507140115 52 25 1.0 2.0 0.00 0.00 0.00 93 1019.4
20260507135115 52 20 1.0 3.0 0.00 0.00 0.00 93 1019.3
20260507134115 52 35 1.0 2.0 0.00 0.00 0.00 93 1019.3
20260507133115 52 38 0.0 1.0 0.00 0.00 0.00 93 1019.3
20260507132115 52 38 0.0 1.0 0.00 0.00 0.00 93 1019.2
20260507131115 52 0.0 1.0 0.00 0.00 0.00 93 1019.1
20260507130135 52 38 1.0 2.0 0.00 0.00 0.00 93 1019.1
20260507125115 52 52 1.0 2.0 0.00 0.00 0.00 92 1018.9
20260507124115 52 69 1.0 3.0 0.00 0.00 0.00 92 1019.0
20260507123135 52 76 1.0 2.0 0.00 0.00 0.00 92 1019.1
20260507122115 52 0.0 0.0 0.00 0.00 0.00 92 1019.2
20260507121115 52 38 1.0 2.0 0.00 0.00 0.00 92 1019.2
20260507120114 52 38 1.0 2.0 0.00 0.00 0.00 92 1019.2
20260507115134 52 5 1.0 2.0 0.00 0.00 0.00 92 1019.0
20260507114135 52 21 0.0 1.0 0.00 0.00 0.00 92 1019.1
20260507113115 52 0.0 1.0 0.00 0.00 0.00 92 1019.2
20260507112115 52 319 1.0 2.0 0.00 0.00 0.00 92 1019.1
20260507111155 52 6 2.0 3.0 0.00 0.00 0.00 92 1019.3
20260507110115 52 352 1.0 2.0 0.00 0.00 0.00 92 1019.3
20260507105115 52 0.0 0.0 0.00 0.00 0.00 91 1019.3
20260507104115 52 0.0 0.0 0.00 0.00 0.00 91 1019.4
20260507103114 52 0.0 0.0 0.00 0.00 0.00 91 1019.4
20260507102115 52 0.0 0.0 0.00 0.00 0.00 91 1019.2
20260507101114 52 267 1.0 1.0 0.00 0.00 0.00 91 1019.3
20260507100114 52 267 1.0 1.0 0.00 0.00 0.00 91 1019.3
20260507095137 52 266 0.0 1.0 0.00 0.00 0.00 90 1019.3
20260507094117 53 269 1.0 1.0 0.00 0.00 0.00 90 1019.4
20260507093117 53 269 1.0 1.0 0.00 0.00 0.00 90 1019.4
20260507092117 53 263 1.0 2.0 0.00 0.00 0.00 90 1019.4
20260507091117 53 260 0.0 2.0 0.00 0.00 0.00 90 1019.6
20260507090117 54 260 1.0 2.0 0.00 0.00 0.00 90 1019.7
20260507085117 54 278 2.0 2.0 0.00 0.00 0.00 90 1019.6
20260507084117 54 0.0 0.0 0.00 0.00 0.00 90 1019.7
20260507083117 55 298 0.0 2.0 0.00 0.00 0.00 90 1019.7
20260507082117 55 288 1.0 3.0 0.00 0.00 0.00 90 1019.8
20260507081117 55 286 2.0 3.0 0.00 0.00 0.00 90 1019.8
20260507080117 55 281 1.0 2.0 0.00 0.00 0.00 90 1019.9
20260507075117 55 264 1.0 2.0 0.00 0.00 0.00 90 1020.0
20260507074117 55 0.0 0.0 0.00 0.00 0.00 90 1020.1
20260507073117 54 0.0 1.0 0.00 0.00 0.00 90 1020.0
20260507072117 55 263 1.0 2.0 0.00 0.00 0.00 90 1020.1
20260507071137 55 248 1.0 2.0 0.00 0.00 0.00 90 1020.1
20260507070117 55 0.0 1.0 0.00 0.00 0.00 89 1020.0
20260507065117 55 202 1.0 1.0 0.00 0.00 0.00 89 1019.9
20260507064117 55 192 0.0 1.0 0.00 0.00 0.00 89 1019.8